Weather History for Aurora, CO

Change the Weather History Date:

Friday, March 14, 2014

  Actual Average Record
Temperature  
Mean Temperature 44 °F -  
Max Temperature 60 °F 51 °F 75 °F (2003)
Min Temperature 28 °F 27 °F 8 °F (1997)
Degree Days  
Heating Degree Days 21    
Moisture  
Dew Point 19 °F    
Average Humidity 40    
Maximum Humidity 69    
Minimum Humidity 15    
Precipitation  
Precipitation 0.00 in - - ()
Sea Level Pressure  
Sea Level Pressure 29.91 in    
Wind  
Wind Speed 9 mph (South)    
Max Wind Speed 17 mph    
Max Gust Speed 21 mph    
Visibility 10 miles    
Events      
Averages and records for this station are not official NWS values.
T = Trace of Precipitation, MM = Missing Value Source: NWS Daily Summary

Daily Weather History Graph

Daily Weather History Graph

Search for Another Location

Airport:

Trip Planner

Search our weather history database for the weather conditions in past years. The results will help you decide how hot, cold, wet, or windy it might be!

Date:

Astronomy

Mar. 14, 2014 Rise Set
Actual Time 7:11 AM MDT 7:04 PM MDT
Civil Twilight 6:45 AM MDT 7:31 PM MDT
Nautical Twilight 6:13 AM MDT 8:03 PM MDT
Astronomical Twilight 5:42 AM MDT 8:34 PM MDT
Moon 5:29 PM MDT (3/14) 5:53 AM MDT (3/14)
Length of Visible Light 12h 46m
Length of Day
11h 53m
Waxing Gibbous, 96% of the Moon is Illuminated
Mar 14
Waxing Gibbous
Mar 16
Full
Mar 23
Last Quarter
Mar 30
New
Apr 7
First Quarter

Hourly Weather History & Observations

Time (MDT) Temp. Windchill Dew Point Humidity Pressure Visibility Wind Dir Wind Speed Gust Speed Precip Events Conditions
12:55 AM 37.4 °F 29.8 °F 17.6 °F 45% 29.88 in 10.0 mi NE 11.5 mph - N/A   Partly Cloudy
1:55 AM 35.6 °F 30.7 °F 19.4 °F 52% 29.93 in 10.0 mi NNE 5.8 mph - N/A   Partly Cloudy
2:55 AM 33.8 °F 29.6 °F 17.6 °F 52% 29.94 in 10.0 mi ENE 4.6 mph - N/A   Partly Cloudy
3:55 AM 32.0 °F 27.5 °F 19.4 °F 60% 29.95 in 10.0 mi SW 4.6 mph - N/A   Partly Cloudy
4:55 AM 32.0 °F 27.5 °F 19.4 °F 60% 29.96 in 10.0 mi SW 4.6 mph - N/A   Partly Cloudy
5:55 AM 30.2 °F 24.3 °F 19.4 °F 64% 29.98 in 10.0 mi SSW 5.8 mph - N/A   Partly Cloudy
6:55 AM 28.4 °F 20.4 °F 19.4 °F 69% 30.01 in 70.0 mi South 8.1 mph - N/A   Partly Cloudy
7:55 AM 30.2 °F 21.9 °F 21.2 °F 69% 30.03 in 70.0 mi South 9.2 mph - N/A   Partly Cloudy
8:55 AM 37.4 °F 30.3 °F 23.0 °F 56% 30.01 in 70.0 mi South 10.4 mph - N/A   Partly Cloudy
9:55 AM 44.6 °F 38.1 °F 21.2 °F 39% 29.98 in 70.0 mi South 13.8 mph - N/A   Partly Cloudy
10:55 AM 50.0 °F - 19.4 °F 30% 29.95 in 70.0 mi South 17.3 mph - N/A   Partly Cloudy
11:55 AM 53.6 °F - 14.0 °F 21% 29.92 in 70.0 mi South 15.0 mph - N/A   Partly Cloudy
12:55 PM 55.4 °F - 15.8 °F 21% 29.91 in 70.0 mi South 12.7 mph 20.7 mph N/A   Partly Cloudy
1:55 PM 57.2 °F - 17.6 °F 21% 29.88 in 70.0 mi SE 5.8 mph 20.7 mph N/A   Partly Cloudy
2:55 PM 59.0 °F - 14.0 °F 17% 29.85 in 70.0 mi SSE 4.6 mph - N/A   Partly Cloudy
3:55 PM 60.8 °F - 14.0 °F 16% 29.83 in 70.0 mi SSE 8.1 mph - N/A   Partly Cloudy
4:55 PM 60.8 °F - 12.2 °F 15% 29.82 in 70.0 mi NW 4.6 mph - N/A   Partly Cloudy
5:55 PM 59.0 °F - 14.0 °F 17% 29.82 in 70.0 mi Calm Calm - N/A   Partly Cloudy
6:55 PM 53.6 °F - 21.2 °F 28% 29.86 in 70.0 mi South 11.5 mph - N/A   Partly Cloudy
7:55 PM 50.0 °F - 21.2 °F 32% 29.87 in 25.0 mi South 13.8 mph - N/A   Partly Cloudy
8:55 PM 46.4 °F 40.4 °F 23.0 °F 40% 29.86 in 25.0 mi South 13.8 mph - N/A   Mostly Cloudy
9:55 PM 42.8 °F 37.0 °F 23.0 °F 46% 29.86 in 25.0 mi South 10.4 mph - N/A   Mostly Cloudy
10:55 PM 41.0 °F 35.2 °F 23.0 °F 49% 29.83 in 10.0 mi South 9.2 mph - N/A   Mostly Cloudy
11:55 PM 39.2 °F 34.2 °F 21.2 °F 49% 29.83 in 10.0 mi South 6.9 mph - N/A   Mostly Cloudy